Fort Knox, KY

7:58 PM EST on December 08, 2016 (GMT -0500)
Godman Army Air Field

Weather History for KFTK - December, 2011

Change the Weather History Date:

Tuesday, December 13, 2011

  Actual Average Record
Temperature  
Mean Temperature 44 °F -  
Max Temperature 51 °F 43 °F 68 °F (2015)
Min Temperature 37 °F 27 °F 10 °F (2010)
Degree Days  
Heating Degree Days 21    
Moisture  
Dew Point 43 °F    
Average Humidity 90    
Maximum Humidity 100    
Minimum Humidity 82    
Precipitation  
Precipitation 0.00 in - - ()
Sea Level Pressure  
Sea Level Pressure 30.42 in    
Wind  
Wind Speed 2 mph (South)    
Max Wind Speed 7 mph    
Max Gust Speed -    
Visibility 9 miles    
Events Rain    
Averages and records for this station are not official NWS values.
T = Trace of Precipitation, MM = Missing Value Source: NWS Daily Summary

Daily Weather History Graph

Daily Weather History Graph

Search for Another Location

Airport or City:

Trip Planner

Search our weather history database for the weather conditions in past years. The results will help you decide how hot, cold, wet, or windy it might be!

Date:

Astronomy

Dec. 13, 2011 Rise Set
Actual Time 7:50 AM EST 5:25 PM EST
Civil Twilight 7:21 AM EST 5:54 PM EST
Nautical Twilight 6:48 AM EST 6:27 PM EST
Astronomical Twilight 6:16 AM EST 6:59 PM EST
Moon 8:37 PM EST (12/13) 10:02 AM EST (12/13)
Length of Visible Light 10h 33m
Length of Day
9h 34m
Waning Gibbous, 90% of the Moon is Illuminated
Dec 13
Waning Gibbous
Dec 17
Last Quarter
Dec 24
New
Jan 1
First Quarter
Jan 9
Full

Hourly Weather History & Observations

Time (EST) Temp. Windchill Dew Point Humidity Pressure Visibility Wind Dir Wind Speed Gust Speed Precip Events Conditions
12:55 AM 37.9 °F - 34.3 °F 87% 30.43 in 10.0 mi Calm Calm - N/A   Overcast
1:55 AM 40.1 °F - 36.7 °F 88% 30.43 in 10.0 mi Calm Calm - N/A   Overcast
2:55 AM 39.9 °F 37.8 °F 36.5 °F 88% 30.42 in 10.0 mi East 3.5 mph - N/A   Mostly Cloudy
3:55 AM 38.3 °F - 36.7 °F 94% 30.44 in 10.0 mi Calm Calm - N/A   Overcast
4:55 AM 39.6 °F - 37.2 °F 91% 30.43 in 10.0 mi Calm Calm - N/A   Overcast
5:55 AM 40.1 °F - 38.5 °F 94% 30.44 in 10.0 mi Calm Calm - N/A   Overcast
6:55 AM 40.1 °F - 38.7 °F 95% 30.45 in 10.0 mi Calm Calm - N/A   Overcast
7:55 AM 40.8 °F - 38.8 °F 93% 30.47 in 10.0 mi Calm Calm - N/A   Overcast
8:55 AM 43.0 °F - 39.6 °F 88% 30.47 in 10.0 mi Calm Calm - N/A   Overcast
9:55 AM 44.6 °F 43.1 °F 41.0 °F 87% 30.46 in 7.0 mi South 3.5 mph - N/A   Overcast
10:55 AM 47.3 °F - 43.5 °F 87% 30.48 in 10.0 mi South 3.5 mph - N/A   Overcast
11:55 AM 48.9 °F - 45.7 °F 89% 30.47 in 10.0 mi SSW 4.6 mph - 0.00 in   Light Drizzle
12:19 PM 48.2 °F - 46.4 °F 93% 30.43 in 10.0 mi South 2.3 mph - N/A   Overcast
12:55 PM 49.5 °F - 46.0 °F 88% 30.45 in 10.0 mi Calm Calm - 0.00 in   Overcast
1:55 PM 50.2 °F - 45.9 °F 85% 30.42 in 10.0 mi SSW 3.5 mph - N/A   Overcast
2:03 PM 50.0 °F - 46.4 °F 87% 30.49 in 10.0 mi SSW 5.8 mph - N/A   Overcast
2:25 PM 50.0 °F - 44.6 °F 82% 30.39 in 10.0 mi SW 4.6 mph - N/A   Overcast
2:55 PM 50.5 °F - 46.0 °F 85% 30.40 in 10.0 mi South 6.9 mph - N/A   Overcast
3:55 PM 50.9 °F - 46.6 °F 85% 30.38 in 10.0 mi SSE 5.8 mph - N/A   Overcast
4:48 PM 51.8 °F - 46.4 °F 82% 30.37 in 10.0 mi SSW 4.6 mph - N/A   Overcast
4:55 PM 51.1 °F - 46.2 °F 83% 30.39 in 7.0 mi South 3.5 mph - N/A   Overcast
5:55 PM 49.6 °F - 45.9 °F 87% 30.40 in 7.0 mi Calm Calm - N/A   Overcast
6:55 PM 49.1 °F - 46.0 °F 89% 30.40 in 7.0 mi South 2.3 mph - N/A   Overcast
7:55 PM 48.2 °F - 46.2 °F 93% 30.40 in 7.0 mi SSW 3.5 mph - 0.00 in Rain Light Rain
8:55 PM 48.4 °F - 46.8 °F 94% 30.39 in 7.0 mi South 3.5 mph - 0.00 in   Light Drizzle
9:54 PM 46.4 °F - 46.4 °F 100% 30.36 in 7.0 mi Calm Calm - N/A   Overcast
9:55 PM 46.8 °F - 45.9 °F 97% 30.38 in 7.0 mi NE 1.2 mph - 0.00 in   Overcast
10:48 PM 46.4 °F - 46.4 °F 100% 30.33 in 9.0 mi ESE 2.3 mph - N/A   Overcast
10:55 PM 46.2 °F 45.0 °F 45.9 °F 99% 30.35 in 10.0 mi ESE 3.5 mph - N/A   Overcast
11:55 PM 47.3 °F - 47.1 °F 99% 30.34 in 10.0 mi ESE 4.6 mph - N/A   Overcast